When you browse on this site, cookies collect data to enhance your experience and personalize the content and advertising you see.
Visit our Privacy Policy to learn more. By continuing to use the site, you agree to this use of cookies and data.
  • In Romania
  • List of Countries
  • For 7 days
  • Water Temperature
  • Weather Map
  • Weather Widgets
  • user-avatar
    Login

    Hourly Weather Balatonakarattya

    Today, 3 June, Wednesday

    Time Temperature Precipitation Wind Pressure Humidity
    00:00 +12°C° 0 mm 3 mps 748 mmHg 79%
    01:00 +12°C° 0 mm 4 mps 748 mmHg 80%
    02:00 +12°C° 0.1 mm 3 mps 747 mmHg 81%
    03:00 +12°C° 0.1 mm 3 mps 747 mmHg 83%
    04:00 +12°C° 0.1 mm 3 mps 746 mmHg 84%
    05:00 +13°C° 0.1 mm 3 mps 746 mmHg 83%
    06:00 +14°C° 0.1 mm 4 mps 746 mmHg 83%
    07:00 +15°C° 0.1 mm 5 mps 746 mmHg 82%
    08:00 +16°C° 0.2 mm 5 mps 746 mmHg 78%
    09:00 +17°C° 0.2 mm 5 mps 746 mmHg 73%
    10:00 +20°C° 0.2 mm 5 mps 746 mmHg 69%
    11:00 +20°C° 0.5 mm 5 mps 745 mmHg 67%
    12:00 +21°C° 0.5 mm 5 mps 745 mmHg 66%
    13:00 +21°C° 0.5 mm 4 mps 745 mmHg 64%
    14:00 +22°C° 0.2 mm 4 mps 744 mmHg 62%
    15:00 +22°C° 0.2 mm 4 mps 744 mmHg 61%
    16:00 +22°C° 0.2 mm 4 mps 744 mmHg 60%
    17:00 +21°C° 0.2 mm 3 mps 744 mmHg 66%
    18:00 +20°C° 0.2 mm 2 mps 743 mmHg 72%
    19:00 +19°C° 0.2 mm 1 mps 743 mmHg 78%
    20:00 +18°C° 0.1 mm 1 mps 744 mmHg 82%
    21:00 +16°C° 0.1 mm 2 mps 744 mmHg 85%
    22:00 +15°C° 0.1 mm 2 mps 744 mmHg 89%
    23:00 +15°C° 0 mm 2 mps 744 mmHg 89%

    Tomorrow, 4 June, Thursday

    Time Temperature Precipitation Wind Pressure Humidity
    00:00 +14°C° 0 mm 2 mps 743 mmHg 89%
    01:00 +14°C° 0 mm 2 mps 743 mmHg 89%
    02:00 +13°C° 0.1 mm 2 mps 743 mmHg 90%
    03:00 +13°C° 0.1 mm 2 mps 742 mmHg 92%
    04:00 +13°C° 0.1 mm 2 mps 742 mmHg 93%
    05:00 +13°C° 0.1 mm 3 mps 742 mmHg 89%
    06:00 +15°C° 0.1 mm 4 mps 742 mmHg 85%
    07:00 +16°C° 0.1 mm 5 mps 742 mmHg 81%
    08:00 +19°C° 0 mm 6 mps 742 mmHg 76%
    09:00 +21°C° 0 mm 6 mps 742 mmHg 70%
    10:00 +23°C° 0 mm 7 mps 742 mmHg 65%
    11:00 +23°C° 0.1 mm 7 mps 741 mmHg 62%
    12:00 +24°C° 0.1 mm 8 mps 741 mmHg 60%
    13:00 +26°C° 0.1 mm 8 mps 741 mmHg 58%
    14:00 +26°C° 0 mm 8 mps 740 mmHg 57%
    15:00 +26°C° 0 mm 8 mps 740 mmHg 56%
    16:00 +26°C° 0 mm 8 mps 740 mmHg 55%
    17:00 +23°C° 0 mm 7 mps 740 mmHg 59%
    18:00 +22°C° 0 mm 7 mps 739 mmHg 62%
    19:00 +21°C° 0 mm 7 mps 739 mmHg 66%
    20:00 +20°C° 0 mm 7 mps 739 mmHg 65%
    21:00 +20°C° 0 mm 7 mps 739 mmHg 63%
    22:00 +20°C° 0 mm 7 mps 739 mmHg 62%
    23:00 +20°C° 0 mm 6 mps 739 mmHg 62%

    Day after tomorrow, 5 June, Friday

    Time Temperature Precipitation Wind Pressure Humidity
    00:00 +19°C° 0 mm 6 mps 739 mmHg 62%
    01:00 +19°C° 0 mm 5 mps 739 mmHg 62%
    02:00 +17°C° 0.1 mm 5 mps 739 mmHg 65%
    03:00 +17°C° 0.1 mm 4 mps 739 mmHg 68%
    04:00 +17°C° 0.1 mm 4 mps 739 mmHg 71%
    05:00 +17°C° 0.5 mm 4 mps 739 mmHg 76%
    06:00 +17°C° 0.5 mm 4 mps 739 mmHg 80%
    07:00 +17°C° 0.5 mm 5 mps 739 mmHg 85%
    08:00 +19°C° 0.1 mm 5 mps 740 mmHg 79%
    09:00 +21°C° 0.1 mm 6 mps 740 mmHg 73%
    10:00 +23°C° 0.1 mm 7 mps 740 mmHg 67%
    11:00 +22°C° 1.2 mm 6 mps 740 mmHg 73%
    12:00 +21°C° 1.2 mm 6 mps 740 mmHg 79%
    13:00 +20°C° 1.2 mm 5 mps 741 mmHg 85%
    14:00 +19°C° 1.5 mm 4 mps 741 mmHg 87%
    15:00 +18°C° 1.5 mm 3 mps 741 mmHg 89%
    16:00 +18°C° 1.5 mm 2 mps 742 mmHg 91%
    17:00 +17°C° 0.1 mm 3 mps 742 mmHg 91%
    18:00 +17°C° 0.1 mm 3 mps 743 mmHg 91%
    19:00 +16°C° 0.1 mm 3 mps 743 mmHg 91%
    20:00 +15°C° 0 mm 2 mps 744 mmHg 90%
    21:00 +14°C° 0 mm 1 mps 744 mmHg 90%
    22:00 +14°C° 0 mm 1 mps 745 mmHg 89%
    23:00 +13°C° 0 mm 1 mps 745 mmHg 88%

    6 June, Saturday

    Time Temperature Precipitation Wind Pressure Humidity
    00:00 +13°C° 0 mm 1 mps 746 mmHg 87%
    01:00 +13°C° 0 mm 1 mps 746 mmHg 86%
    02:00 +12°C° 0 mm 1 mps 747 mmHg 86%
    03:00 +11°C° 0 mm 0 mps 747 mmHg 85%
    04:00 +11°C° 0 mm 0 mps 747 mmHg 84%
    05:00 +13°C° 0 mm 0 mps 748 mmHg 81%
    06:00 +14°C° 0 mm 0 mps 748 mmHg 78%
    07:00 +15°C° 0 mm 0 mps 749 mmHg 75%
    08:00 +19°C° 0 mm 1 mps 749 mmHg 70%
    09:00 +20°C° 0 mm 1 mps 749 mmHg 64%
    10:00 +21°C° 0 mm 2 mps 749 mmHg 59%
    11:00 +23°C° 0 mm 2 mps 749 mmHg 56%
    12:00 +24°C° 0 mm 3 mps 748 mmHg 53%
    13:00 +25°C° 0 mm 3 mps 748 mmHg 51%
    14:00 +25°C° 0 mm 3 mps 748 mmHg 52%
    15:00 +25°C° 0 mm 3 mps 747 mmHg 54%
    16:00 +25°C° 0 mm 3 mps 747 mmHg 55%
    17:00 +24°C° 0 mm 3 mps 747 mmHg 61%
    18:00 +22°C° 0 mm 3 mps 747 mmHg 67%
    19:00 +20°C° 0 mm 2 mps 747 mmHg 73%
    20:00 +20°C° 0.1 mm 2 mps 747 mmHg 75%
    21:00 +19°C° 0.1 mm 2 mps 747 mmHg 76%
    22:00 +18°C° 0.1 mm 2 mps 747 mmHg 78%
    23:00 +18°C° 0.4 mm 2 mps 747 mmHg 82%

    7 June, Sunday

    Time Temperature Precipitation Wind Pressure Humidity
    00:00 +18°C° 0.4 mm 2 mps 747 mmHg 86%
    01:00 +17°C° 0.4 mm 2 mps 747 mmHg 90%
    02:00 +17°C° 0 mm 2 mps 747 mmHg 90%
    03:00 +16°C° 0 mm 2 mps 747 mmHg 90%
    04:00 +15°C° 0 mm 2 mps 747 mmHg 90%
    05:00 +17°C° 0 mm 2 mps 747 mmHg 86%
    06:00 +18°C° 0 mm 3 mps 747 mmHg 82%
    07:00 +19°C° 0 mm 3 mps 747 mmHg 78%
    08:00 +20°C° 0 mm 4 mps 747 mmHg 74%
    09:00 +22°C° 0 mm 5 mps 747 mmHg 70%
    10:00 +23°C° 0 mm 5 mps 747 mmHg 66%
    11:00 +23°C° 0.2 mm 5 mps 747 mmHg 64%
    12:00 +24°C° 0.2 mm 6 mps 747 mmHg 63%
    13:00 +26°C° 0.2 mm 6 mps 746 mmHg 62%
    14:00 +26°C° 0.2 mm 6 mps 746 mmHg 62%
    15:00 +26°C° 0.2 mm 6 mps 746 mmHg 61%
    16:00 +26°C° 0.2 mm 6 mps 746 mmHg 61%
    17:00 +23°C° 0.1 mm 5 mps 746 mmHg 67%
    18:00 +22°C° 0.1 mm 5 mps 746 mmHg 73%
    19:00 +21°C° 0.1 mm 5 mps 746 mmHg 79%
    20:00 +20°C° 0.1 mm 4 mps 746 mmHg 81%
    21:00 +19°C° 0.1 mm 4 mps 746 mmHg 83%
    22:00 +18°C° 0.1 mm 4 mps 747 mmHg 85%
    23:00 +17°C° 0 mm 4 mps 747 mmHg 84%

    8 June, Monday

    Time Temperature Precipitation Wind Pressure Humidity
    00:00 +17°C° 0 mm 4 mps 747 mmHg 82%
    01:00 +15°C° 0 mm 5 mps 748 mmHg 80%
    02:00 +15°C° 0 mm 5 mps 748 mmHg 78%
    03:00 +15°C° 0 mm 5 mps 748 mmHg 75%
    04:00 +14°C° 0 mm 5 mps 749 mmHg 73%
    05:00 +14°C° 0 mm 5 mps 749 mmHg 73%
    06:00 +14°C° 0 mm 6 mps 750 mmHg 73%
    07:00 +14°C° 0 mm 6 mps 750 mmHg 73%
    08:00 +15°C° 0 mm 5 mps 750 mmHg 71%
    09:00 +16°C° 0 mm 5 mps 751 mmHg 69%
    10:00 +17°C° 0 mm 4 mps 751 mmHg 68%
    11:00 +18°C° 0 mm 3 mps 751 mmHg 65%
    12:00 +19°C° 0 mm 3 mps 750 mmHg 63%
    13:00 +21°C° 0 mm 2 mps 750 mmHg 61%
    14:00 +21°C° 0 mm 2 mps 750 mmHg 60%
    15:00 +21°C° 0 mm 2 mps 750 mmHg 60%
    16:00 +23°C° 0 mm 2 mps 749 mmHg 60%
    17:00 +21°C° 0 mm 2 mps 749 mmHg 65%
    18:00 +20°C° 0 mm 2 mps 749 mmHg 70%
    19:00 +18°C° 0 mm 2 mps 749 mmHg 75%
    20:00 +17°C° 0 mm 2 mps 750 mmHg 75%
    21:00 +16°C° 0 mm 2 mps 750 mmHg 75%
    22:00 +16°C° 0 mm 2 mps 750 mmHg 75%
    23:00 +15°C° 0 mm 2 mps 750 mmHg 75%
    Show more